Location: The Saddle
(36.8333°N, 80.3417°W)
Time: 08:31:53
(UTC-05:00)

S-56A Canister/Altair - Pass Details

Date: 14 December 2023
Orbit: 640 x 2488 km, 38.9° (Epoch: 25 February)

Event Time Altitude Azimuth Distance (km) Brightness Sun altitude
Rises 15:39:38 0° 270° (W) 2,931 11.3 13.1°
Reaches altitude 10° 15:43:19 10° 238° (WSW) 2,078 12.2 12.6°
Maximum altitude 15:45:05 12° 215° (SW) 2,005 11.8 12.3°
Drops below altitude 10° 15:46:57 10° 192° (SSW) 2,225 10.9 12.1°
Sets 15:51:18 0° 162° (SSE) 3,430 11.2 11.4°
